Regional Weather Roundup
Issued by NWS

Home | Current Version | Previous Version | Graphics & Text | Print | Product List | Glossary Off
Versions: 1 2 3 4 5 6 7 8 9 10 11 12 13 14 15 16 17 18 19 20 21 22 23 24 25 26 27 28 29 30 31 32 33 34 35 36 37 38 39 40 41 42 43 44 45 46 47 48 49 50

000
ASUS43 KMPX 230710
RWRMN
WEATHER ROUNDUP FOR MINNESOTA
NATIONAL WEATHER SERVICE TWIN CITIES/CHANHASSEN MN
200 AM CDT WED MAY 23 2018


NOTE: "FAIR" INDICATES FEW OR NO CLOUDS BELOW 12,000 FEET WITH NO
SIGNIFICANT WEATHER AND/OR OBSTRUCTIONS TO VISIBILITY. N/A MEANS
CURRENT SKY AND/OR WEATHER CONDITIONS ARE NOT AVAILABLE.

MNZ060>063-068>070-230800-
   Twin Cities Metro

CITY           SKY/WX    TMP DP  RH WIND       PRES   REMARKS
TWIN CITIES    MOCLDY    62  59  90 SE5       30.07F
ST PAUL        FAIR      61  57  87 SE6       30.08S
CRYSTAL        FAIR      61  56  83 SE6       30.06S
BLAINE         FAIR      61  57  88 SE3       30.08R
LAKEVILLE      FAIR      57  57 100 E5        30.07F
EDEN PRAIRIE   FAIR      64  57  78 SE6       30.06S
SOUTH ST PAUL  FAIR      61  58  88 CALM      30.07F
LAKE ELMO      FAIR      57  55  94 SE3       30.09S
$$
MNZ001>005-007-008-013>017-022>024-027-028-230800-
   Northwest Minnesota

CITY           SKY/WX    TMP DP  RH WIND       PRES   REMARKS
BEMIDJI        FAIR      54  52  92 S3        30.05S
HALLOCK        FAIR      64  54  68 SE8       29.99S
ROSEAU         FAIR      61  52  72 S3        30.02S
WARROAD        FAIR      61  52  72 S5        30.03S
THIEF RVR FALL FAIR      62  54  74 S6        30.03S
CROOKSTON      FAIR      63  55  77 SE8       30.01S
FOSSTON        FAIR      61  52  72 SE5       30.04S
DETROIT LAKES  FAIR      61  55  82 SE5       30.05S
MOORHEAD       FAIR      66  55  68 SE7       30.00F
PARK RAPIDS    FAIR      60  54  80 E3        30.06R
MAHNOMEN       FAIR      62  55  78 SE6       30.03S
$$
MNZ006-009>011-018-025>026-230800-
   North Central Minnesota

CITY           SKY/WX    TMP DP  RH WIND       PRES   REMARKS
BAUDETTE       FAIR      55  53  93 CALM      30.03S
FLAG ISLAND    FAIR      57  54  88 CALM      30.02R
INTL FALLS     FAIR      48  46  93 CALM      30.04S
WASKISH          N/A     57  54  88 CALM      30.04S
BIG FORK       FAIR      52  48  87 CALM      30.06F
LONGVILLE      FAIR      52  52 100 CALM      30.06F
GRAND RAPIDS   FAIR      54  52  93 CALM      30.09S
CRANE LAKE     FAIR      45  43  93 CALM      30.07S
ORR            FAIR      54  48  82 CALM      30.05R
COOK           FAIR      54  52  94 CALM      30.08S
WALKER         FAIR      54  53  96 CALM      30.06R
$$
MNZ012-019>021-037-230800-
   Northeast Minnesota

CITY           SKY/WX    TMP DP  RH WIND       PRES   REMARKS
DULUTH         FAIR      59  53  80 CALM      30.08S
ELY            FAIR      55  50  82 SW3       30.07S
HIBBING        FAIR      47  47 100 CALM      30.07S
EVELETH        FAIR      48  48 100 CALM      30.09S
DULUTH HARBOR  FAIR      61  55  82 SW6       30.07R
TWO HARBORS    FAIR      64  57  77 NW5       30.05S
SILVER BAY     FAIR      54  52  94 CALM      30.05S
GRAND MARAIS     N/A     48  45  89 W5        30.03R
G MARAIS ARPRT FAIR      48  43  81 CALM      30.08R
$$
MNZ029>031-032-039>041-046>048-054>057-064-230800-
   West Central Minnesota

CITY           SKY/WX    TMP DP  RH WIND       PRES   REMARKS
FERGUS FALLS   FAIR      66  55  68 SE9       29.98S
WHEATON        MOCLDY    64  55  72 SE12      30.01F
MORRIS         CLOUDY    63  55  77 E9        30.00F
ALEXANDRIA     FAIR      64  55  72 E9        30.05F
ELBOW LAKE     FAIR      64  57  77 SE10      30.02F
WADENA         FAIR      57  52  82 SE3       30.05F
GLENWOOD       FAIR      61  55  82 SE9       30.05S
APPLETON       PTCLDY    66  55  68 E8        29.99F
BENSON         PTCLDY    66  57  72 SE9       30.02F
ORTONVILLE     MOCLDY    64  55  72 E9        29.99F
MADISON        CLOUDY    66  57  72 E10       29.99F
WILLMAR        FAIR      63  57  82 E9        30.05F
$$
MNZ033>034-036-042>043-049>051-058-059-230800-
   Central Minnesota

CITY           SKY/WX    TMP DP  RH WIND       PRES   REMARKS
ST CLOUD       FAIR      55  53  93 E3        30.06F
SAUK CENTRE    FAIR      58  54  86 E3        30.06S
PAYNESVILLE    FAIR      63  58  83 SE9       30.06S
PINE RIVER     FAIR      48  46  93 CALM      30.10S FOG
BRAINERD       FAIR      54  51  90 CALM      30.07S
STAPLES        FAIR      54  52  94 S3        30.06S
LONG PRAIRIE   FAIR      57  54  88 NE3       30.06F
LITTLE FALLS   FAIR      59  55  88 SE3       30.06F
LITCHFIELD     FAIR      63  61  94 E6        30.06S
BUFFALO        FAIR      61  55  80 E3        30.07S
MAPLE LAKE     FAIR      63  58  84 SE3       30.07S
HUTCHINSON     FAIR      63  59  88 E7        30.05F
$$
MNZ037-044-045-052-053-230800-
   East Central Minnesota

CITY           SKY/WX    TMP DP  RH WIND       PRES   REMARKS
PRINCETON      FOG       55  54  94 CALM      30.07S VSB 1/2
MORA           FOG       50  50 100 CALM      30.09F VSB 1/2
CAMBRIDGE      FAIR      57  52  82 CALM      30.08S
RUSH CITY      FAIR      52  51  95 CALM      30.08S FOG
MOOSE LAKE     FAIR      50  46  87 CALM      30.06S
HINCKLEY       FAIR      50  50 100 CALM      30.08S
CLOQUET        FAIR      52  48  87 CALM      30.08S
MCGREGOR       FAIR      52  50  93 CALM      30.08S
$$
MNZ071>073-080-081-089-090-097-098-230800-
   Southwest Minnesota

CITY           SKY/WX    TMP DP  RH WIND       PRES   REMARKS
MONTEVIDEO     PTCLDY    64  57  77 SE12      30.00F
GRANITE FALLS  CLOUDY    66  59  77 E9        30.01F
CANBY          CLOUDY    64  57  76 SE5       30.00F
MARSHALL       CLOUDY    65  57  75 E7        30.00F
REDWOOD FALLS  CLOUDY    64  58  80 E9        30.00F
OLIVIA         PTCLDY    63  57  82 E8        30.01F
PIPESTONE      PTCLDY    66  63  88 SE7       29.99S
WINDOM         TSTM      66  50  55 SE9       30.01S
WORTHINGTON    CLOUDY    66  63  90 E10       30.01F
JACKSON        CLOUDY    59  59 100 E10       30.00F
TRACY          TSTM      68  65  90 S8        30.01S
SLAYTON        CLOUDY    67  63  88 SE12      30.01F
$$
MNZ065>067-074>077-082>085-091>093-230800-
   South Central Minnesota

CITY           SKY/WX    TMP DP  RH WIND       PRES   REMARKS
MANKATO        MOCLDY    65  59  81 SE14      30.04F
NEW ULM        MOCLDY    66  57  72 SE9       30.02F
ST JAMES       CLOUDY    66  59  77 E8        30.03F
FAIRMONT       CLOUDY    67  64  90 SW8       30.05R
GLENCOE        FAIR      64  59  84 E8        30.05S
OWATONNA       FAIR      61  57  88 SE9       30.07S
WASECA         FAIR      63  57  82 E10       30.07F
ALBERT LEA     FAIR      63  55  77 SE7       30.07F
$$
MNZ078>079-086>088-094>096-230800-
   Southeast Minnesota

CITY           SKY/WX    TMP DP  RH WIND       PRES   REMARKS
ROCHESTER      FAIR      57  57 100 SE9       30.10R
RED WING       FAIR      57  54  88 CALM      30.08S FOG
STANTON        FAIR      60  56  88 CALM      30.07S
DODGE CENTER   FAIR      57  55  94 SE7       30.09S
WINONA         FAIR      54  54 100 CALM      30.08R FOG
AUSTIN         FAIR      61  57  88 E6        30.08F
PRESTON        FAIR      57  54  90 SE3       30.11R
$$
ABBREVIATIONS USED IN REMARKS
   TC - TEMPERATURES IN CELSIUS
  WCI - WIND CHILL INDEX
   HX - HEAT INDEX
  VSB - VISIBILITY
$$



USA.gov is the U.S. government's official web portal to all federal, state and local government web resources and services.